Other Public Products
Issued by NWS Charleston, SC

Current Version | Previous Version | Graphics & Text | Print | Product List | Glossary On
Versions: 1 2 3 4 5 6 7 8 9 10 11 12 13 14 15 16 17 18 19 20 21 22 23 24 25 26 27 28 29 30 31 32 33 34 35 36 37 38 39 40 41 42 43 44 45 46 47 48 49 50
000 FPUS82 KCHS 260827 OPUCHS TEST...KCHS/KSAV Gateway Observations...TEST National Weather Service Charleston SC 400 AM EDT TUE SEP 26 2017 NOTE: "fair" indicates few or no clouds below 12,000 feet with no significant weather and/or obstructions to visibility. SCZ050-WAZ558-NCZ071-TXZ119-213-PAZ071-DCZ001-FLZ074-172-MI076- NYZ176-178-MAZ016-IL014-TNZ027-NJZ106-GAZ044-MD014-260900- ...Gateway Observations for Charleston International... CITY SKY/WX TMP DP RH WIND PRES REMARKS Chas Airport PTCLDY 70 69 97 NW8 29.85F Seattle MOCLDY 62 54 74 CALM 30.14R Charlotte MOCLDY 69 66 90 NW8 29.95F Dallas DFW CLOUDY 80 68 66 SE7 29.88R Dallas Love MOCLDY 80 67 64 SE9 29.89S Philladelphia MOCLDY 67 64 90 NE5 30.01F Wash National PTCLDY 72 66 81 N10 30.00S Baltimore PTCLDY 69 66 90 N3 30.00S Miami CLOUDY 82 77 84 CALM 29.86F HX 90 Detroit CLOUDY 72 67 84 CALM 29.98F Newark CLOUDY 70 67 90 CALM 30.03F Laguardia CLOUDY 70 67 90 CALM 30.02F J F K FOG 67 67 100 E3 30.04F VSB 1 Boston Logan FOG 65 65 100 CALM 30.03F VSB 1/2 Ft. Lauderdale CLOUDY 82 76 81 CALM 29.85F Chicago O`Hare PTCLDY 71 57 61 S3 29.93S Chicago Midway CLEAR 75 57 53 S3 29.93F Houston Bush PTCLDY 72 71 97 N3 29.87S Houston Hobby PTCLDY 77 72 84 E3 29.86S Nashville CLEAR 69 66 90 CALM 29.97F Atlanta CLEAR 72 62 71 NE7 29.97S $$ GAZ044-118-TXZ119-213-NCZ071-DCZ001-MDZ014-506-PAZ021-071-NJZ106- NYZ176-178-MAZ106-OHZ011-021-055-MIZ076-KYZ091-ILZ014-INZ047- MNZ060-ONZ431-260900- ...Gateway Observations for Savannah International... CITY SKY/WX TMP DP RH WIND PRES REMARKS Savannah Arpt PTCLDY 69 67 93 CALM 29.88F Atlanta CLEAR 72 62 71 NE7 29.97S Charlotte MOCLDY 69 66 90 NW8 29.95F Dallas DFW CLOUDY 80 68 66 SE7 29.88R Houston Bush PTCLDY 72 71 97 N3 29.87S Wash National PTCLDY 72 66 81 N10 30.00S Wash Dulles PTCLDY 70 65 84 N5 30.00F Baltimore PTCLDY 69 66 90 N3 30.00S Philadelphia MOCLDY 67 64 90 NE5 30.01F Newark CLOUDY 70 67 90 CALM 30.03F Laguardia CLOUDY 70 67 90 CALM 30.02F J F K FOG 67 67 100 E3 30.04F VSB 1 Boston FOG 65 65 100 CALM 30.03F VSB 1/2 Pittsburg MOCLDY 68 64 87 CALM 30.04S Akron PTCLDY 69 59 70 SE3 30.04S Cleveland MOCLDY 73 62 68 S3 30.02S Cincinnati CLEAR 65 65 100 CALM 30.01S Columbus CLEAR 63 62 99 CALM 30.01S Detroit CLOUDY 72 67 84 CALM 29.98F Chicago O`Hare PTCLDY 71 57 61 S3 29.93S Minneapolis LGT RAIN 58 58 100 NW3 29.93S Indianapolis CLEAR 70 64 81 S3 29.99F Toronto Canada MOCLDY 70 64 83 NW3 29.99F $$

USA.gov is the U.S. government's official web portal to all federal, state and local government web resources and services.